Location: Unspecified
(0.0000°N, 0.0000°E)
Time: 00:37:10
(UTC+00:00)

Tiros 8 - Pass Details

Date: 24 May 2026
Orbit: 640 x 662 km, 58.5° (Epoch: 10 June)

Event Time Altitude Azimuth Distance (km) Brightness Sun altitude
Exits shadow 04:08:07 44° 342° (NNW) 884 9.3 -25.3°
Maximum altitude 04:09:33 80° 61° (ENE) 653 8.6 -25.0°
Drops below altitude 10° 04:14:11 10° 149° (SSE) 2,029 11.3 -23.9°
Sets 04:16:29 0° 150° (SSE) 2,938 12.1 -23.4°
